Weather in Shagonar

Russia / Tyva Republic     51˚32′04″N   92˚55′11″E
temp.,
°C
wind,
m/s
gust,
m/s
humid.,
%
clouds,
%
prec.,
mm/h
press.,
hPa
HPBL,
m
28 november, sat
sat2801:00−13˚sse1194100 0.1 104337
04:00−14˚ese1195100 0.1 104335
07:00−15˚ese1195100 0.1 104435
10:00−14˚e119599 0.1 104372
13:00−12˚e118997 0.1 1041236
16:00−14˚e119345 0.0 104248
19:00−16˚se119456 0.0 104343
22:00−16˚se119596 0.0 104439
29 november, sun
sun2901:00−17˚sse119697 0.1 104535
04:00−17˚sse1198100 0.1 104535
07:00−17˚e1197100 0.1 104637
10:00−16˚ese1196100 0.1 104652
13:00−15˚sw0089100 0.1 1044261
16:00−16˚ne019498 0.0 104552
19:00−18˚ese119791 0.1 104633
22:00−19˚ese119888 0.0 104733
30 november, mon
mon3001:00−19˚ese119889 0.1 104733
04:00−19˚e119884 0.0 104833
07:00−20˚e119891 0.1 104833
10:00−19˚e1296100 0.0 104945
13:00−16˚ene129197 0.1 1047150
16:00−18˚ene229585 0.0 104844
19:00−20˚e229686 0.0 105037
22:00−20˚e229533 0.0 105138
1 december, tue
tue101:00−21˚e229633 0.0 105139
04:00−21˚e229683 0.0 105140
07:00−20˚e229791 0.0 105050
10:00−19˚ene2295100 0.0 1050100
13:00−17˚ene2290100 0.0 1049184
16:00−17˚ene2294100 0.0 104883
19:00−18˚e2294100 0.0 104967
22:00−18˚e2294100 0.0 104956
2 december, wed
wed201:00−18˚e229499 0.0 105057
04:00−18˚ene229690 0.0 105055
07:00−18˚e229794 0.0 105165
10:00−18˚e229697 0.0 105186
13:00−16˚ene229197 0.0 1050219
16:00−17˚e129665 0.0 105050
19:00−19˚e129761 0.0 105246
22:00−20˚ese129790 0.0 105344